False Pass, AK

7:32 PM HDT on July 24, 2017 (GMT -0900)
False Pass

Weather History for PAKF - December, 2013

Change the Weather History Date:

Thursday, December 5, 2013

  Actual Average (PACD) Record (PACD)
Temperature  
Mean Temperature 45 °F -  
Max Temperature 48 °F 33 °F 53 °F (2013)
Min Temperature 42 °F 25 °F 12 °F (1987)
Degree Days  
Heating Degree Days 20    
Moisture  
Dew Point 44 °F    
Average Humidity 95    
Maximum Humidity 100    
Minimum Humidity 93    
Precipitation  
Precipitation 2.21 in - - ()
Sea Level Pressure  
Sea Level Pressure 30.00 in    
Wind  
Wind Speed 13 mph (SE)    
Max Wind Speed 26 mph    
Max Gust Speed 39 mph    
Visibility 4 miles    
Events Rain    
Averages and records for this station are not official NWS values.
T = Trace of Precipitation, MM = Missing Value Source: NWS Daily Summary

Daily Weather History Graph

Daily Weather History Graph

Search for Another Location

Airport or City:

Trip Planner

Search our weather history database for the weather conditions in past years. The results will help you decide how hot, cold, wet, or windy it might be!

Date:

Astronomy

Dec. 05, 2013 Rise Set
Actual Time 9:00 AM HST 4:28 PM HST
Civil Twilight 8:16 AM HST 5:12 PM HST
Nautical Twilight 7:29 AM HST 5:59 PM HST
Astronomical Twilight 6:45 AM HST 6:42 PM HST
Moon 11:13 AM HST (12/5) 8:22 PM HST (12/5)
Length of Visible Light 8h 56m
Length of Day
7h 27m
Waxing Crescent, 12% of the Moon is Illuminated
Dec 5
Waxing Crescent
Dec 9
First Quarter
Dec 16
Full
Dec 25
Last Quarter
Jan 1
New

Hourly Weather History & Observations

Time (HST) Temp. Windchill Dew Point Humidity Pressure Visibility Wind Dir Wind Speed Gust Speed Precip Events Conditions
12:01 AM 44.6 °F 38.1 °F 44.6 °F 100% 29.80 in 3.0 mi SSE 13.8 mph 33.4 mph 0.03 in Rain Light Rain
12:11 AM 45.0 °F 37.4 °F 44.1 °F 97% 30.09 in 3.0 mi SE 18.4 mph 32.2 mph 0.03 in Rain Light Rain
12:19 AM 44.6 °F 35.3 °F 44.6 °F 100% 29.81 in 2.5 mi SSE 26.5 mph 32.2 mph 0.00 in Rain Light Rain
12:57 AM 44.6 °F 36.4 °F 42.8 °F 93% 29.82 in 3.0 mi SE 20.7 mph 34.5 mph 0.00 in Rain Light Rain
1:01 AM 45.0 °F 36.9 °F 43.0 °F 93% 30.10 in 3.0 mi ESE 20.7 mph 34.5 mph 0.01 in Rain Light Rain
1:26 AM 44.6 °F 36.9 °F 42.8 °F 93% 29.82 in 2.5 mi SE 18.4 mph 32.2 mph 0.01 in Rain Light Rain
1:36 AM 44.6 °F 37.4 °F 42.8 °F 93% 29.82 in 3.0 mi SE 16.1 mph 27.6 mph 0.01 in Rain Light Rain
1:53 AM 44.6 °F 36.1 °F 42.8 °F 93% 29.83 in 2.5 mi SSE 21.9 mph 32.2 mph 0.01 in Rain Light Rain
2:01 AM 44.1 °F 35.7 °F 43.0 °F 96% 30.12 in 2.0 mi SSE 20.7 mph 32.2 mph 0.02 in Rain Light Rain
2:23 AM 44.6 °F 37.2 °F 42.8 °F 93% 29.85 in 3.0 mi SE 17.3 mph 27.6 mph 0.00 in Rain Light Rain
2:43 AM 44.6 °F 36.9 °F 42.8 °F 93% 29.86 in 4.0 mi SSE 18.4 mph 26.5 mph 0.00 in Rain Light Rain
3:01 AM 45.0 °F 37.4 °F 43.0 °F 93% 30.15 in 5.0 mi SE 18.4 mph 31.1 mph 0.01 in Rain Light Rain
4:01 AM 44.1 °F 38.6 °F 43.0 °F 96% 30.17 in 4.0 mi SE 10.4 mph 23.0 mph 0.00 in Rain Light Rain
4:41 AM 44.6 °F 39.7 °F 42.8 °F 93% 29.91 in 2.5 mi SSE 9.2 mph 18.4 mph 0.00 in Rain Light Rain
4:51 AM 44.6 °F 38.4 °F 42.8 °F 93% 29.92 in 4.0 mi SE 12.7 mph 19.6 mph 0.00 in Rain Light Rain
5:01 AM 44.1 °F 37.1 °F 42.1 °F 93% 30.20 in 4.0 mi SE 15.0 mph 21.9 mph 0.00 in Rain Light Rain
5:12 AM 44.6 °F 39.2 °F 42.8 °F 93% 29.91 in 5.0 mi SE 10.4 mph 18.4 mph 0.00 in Rain Light Rain
5:56 AM 44.6 °F 40.2 °F 42.8 °F 93% 29.92 in 4.0 mi SSE 8.1 mph - 0.00 in Rain Light Rain
6:01 AM 44.1 °F 38.6 °F 42.1 °F 93% 30.21 in 5.0 mi SE 10.4 mph - 0.01 in Rain Light Rain
6:13 AM 42.8 °F 36.6 °F 42.8 °F 100% 29.93 in 10.0 mi ESE 11.5 mph - 0.00 in Rain Light Rain
6:52 AM 44.6 °F 38.8 °F 42.8 °F 93% 29.94 in 6.0 mi SE 11.5 mph - 0.01 in Rain Light Rain
7:01 AM 44.1 °F 39.0 °F 42.1 °F 93% 30.23 in 7.0 mi SE 9.2 mph - 0.01 in Rain Light Rain
7:20 AM 44.6 °F 38.1 °F 42.8 °F 93% 29.96 in 8.0 mi SE 13.8 mph - 0.00 in Rain Light Rain
7:28 AM 44.6 °F 37.8 °F 42.8 °F 93% 29.95 in 8.0 mi SE 15.0 mph - 0.00 in Rain Light Rain
7:41 AM 44.6 °F 38.4 °F 42.8 °F 93% 29.95 in 7.0 mi SE 12.7 mph - 0.00 in Rain Light Rain
8:01 AM 44.6 °F 37.8 °F 42.8 °F 93% 29.95 in 8.0 mi SSE 15.0 mph - 0.00 in Rain Light Rain
8:13 AM 44.1 °F 38.1 °F 42.1 °F 93% 30.24 in 7.0 mi SSE 11.5 mph 20.7 mph 0.00 in Rain Light Rain
8:43 AM 44.6 °F 37.2 °F 42.8 °F 93% 29.97 in 5.0 mi SE 17.3 mph 23.0 mph 0.00 in Rain Light Rain
9:01 AM 44.1 °F 37.4 °F 42.1 °F 93% 30.27 in 5.0 mi SE 13.8 mph 19.6 mph 0.00 in Rain Light Rain
9:13 AM 44.6 °F 40.2 °F 42.8 °F 93% 29.98 in 1.8 mi SE 8.1 mph - 0.00 in Rain Light Rain
9:27 AM 44.6 °F 39.2 °F 42.8 °F 93% 29.99 in 2.5 mi SSE 10.4 mph - 0.00 in Rain Light Rain
9:51 AM 44.6 °F 40.7 °F 42.8 °F 93% 30.00 in 3.0 mi SSE 6.9 mph - 0.00 in Rain Light Rain
10:01 AM 44.1 °F 40.8 °F 42.1 °F 93% 30.29 in 3.0 mi SE 5.8 mph - 0.01 in Rain Light Rain
10:06 AM 44.6 °F 43.1 °F 42.8 °F 93% 30.00 in 2.5 mi SE 3.5 mph - 0.00 in Rain Light Rain
10:29 AM 44.6 °F 43.1 °F 42.8 °F 93% 30.00 in 1.5 mi ESE 3.5 mph - 0.00 in Rain Light Rain
10:59 AM 44.6 °F 41.4 °F 42.8 °F 93% 30.00 in 3.0 mi SE 5.8 mph - 0.01 in Rain Light Rain
11:01 AM 44.1 °F 40.8 °F 43.0 °F 96% 30.29 in 4.0 mi SE 5.8 mph - 0.01 in Rain Light Rain
12:01 PM 44.1 °F 40.8 °F 43.0 °F 96% 30.28 in 7.0 mi East 5.8 mph - 0.01 in Rain Light Rain
12:23 PM 44.6 °F 42.2 °F 42.8 °F 93% 29.99 in 2.5 mi SE 4.6 mph - 0.00 in Rain Light Rain
12:42 PM 44.6 °F 42.2 °F 42.8 °F 93% 29.98 in 3.0 mi Variable 4.6 mph - 0.00 in Rain Light Rain
12:56 PM 44.6 °F 41.4 °F 42.8 °F 93% 29.96 in 2.0 mi SE 5.8 mph - 0.00 in Rain Light Rain
1:01 PM 44.1 °F 40.8 °F 43.0 °F 96% 30.24 in 2.5 mi SE 5.8 mph - 0.00 in Rain Light Rain
1:09 PM 44.6 °F 43.1 °F 42.8 °F 93% 29.96 in 4.0 mi SE 3.5 mph - 0.00 in Rain Light Rain
1:32 PM 44.6 °F 43.1 °F 44.6 °F 100% 29.97 in 1.8 mi SSE 3.5 mph - 0.00 in Rain Light Rain
1:44 PM 44.6 °F 41.4 °F 44.6 °F 100% 29.97 in 2.0 mi SSE 5.8 mph - 0.00 in Rain Light Rain
2:01 PM 44.6 °F 41.4 °F 44.6 °F 100% 29.95 in 5.0 mi SSE 5.8 mph - 0.01 in Rain Light Rain
2:19 PM 44.6 °F 42.2 °F 44.6 °F 100% 29.93 in 3.0 mi SW 4.6 mph - 0.01 in Rain Light Rain
2:28 PM 44.6 °F 41.4 °F 44.6 °F 100% 29.93 in 1.8 mi SSW 5.8 mph - 0.02 in Rain Light Rain
2:55 PM 44.6 °F 41.4 °F 44.6 °F 100% 29.92 in 3.0 mi South 5.8 mph - 0.03 in Rain Light Rain
3:01 PM 45.0 °F 42.6 °F 44.1 °F 97% 30.20 in 3.0 mi SSW 4.6 mph - 0.03 in Rain Light Rain
3:13 PM 44.6 °F 41.4 °F 44.6 °F 100% 29.91 in 2.5 mi SSW 5.8 mph - 0.00 in Rain Light Rain
3:22 PM 44.6 °F 43.1 °F 44.6 °F 100% 29.90 in 6.0 mi Variable 3.5 mph - 0.00 in   Overcast
4:01 PM 46.9 °F - 46.0 °F 97% 30.17 in 10.0 mi ENE 12.7 mph 18.4 mph 0.00 in   Overcast
4:21 PM 46.4 °F 40.7 °F 46.4 °F 100% 29.86 in 10.0 mi ENE 12.7 mph 20.7 mph N/A   Overcast
5:01 PM 46.9 °F - 45.0 °F 93% 30.12 in 6.0 mi ENE 12.7 mph 20.7 mph 0.09 in Rain Rain
5:35 PM 48.2 °F - 46.4 °F 93% 29.80 in 8.0 mi NE 13.8 mph 23.0 mph 0.10 in Rain Rain
6:01 PM 48.0 °F - 46.0 °F 93% 30.08 in 7.0 mi ENE 10.4 mph 20.7 mph 0.19 in Rain Rain
7:01 PM 46.4 °F 40.7 °F 44.6 °F 93% 29.78 in 4.0 mi East 12.7 mph 26.5 mph 0.33 in Rain Heavy Rain
7:07 PM 46.0 °F 39.6 °F 45.0 °F 96% 30.06 in 4.0 mi ESE 15.0 mph 39.1 mph 0.38 in Rain Heavy Rain
8:01 PM 46.4 °F 41.5 °F 44.6 °F 93% 29.76 in 4.0 mi East 10.4 mph 23.0 mph 0.20 in Rain Heavy Rain
8:13 PM 46.0 °F 39.9 °F 44.1 °F 93% 30.03 in 4.0 mi East 13.8 mph 23.0 mph 0.25 in Rain Rain
8:25 PM 46.4 °F 41.5 °F 44.6 °F 93% 29.75 in 4.0 mi East 10.4 mph 18.4 mph 0.08 in Rain Heavy Rain
9:01 PM 46.9 °F - 46.0 °F 97% 30.03 in 4.0 mi East 10.4 mph 18.4 mph 0.33 in Rain Heavy Rain
10:01 PM 46.9 °F - 45.0 °F 93% 30.02 in 3.0 mi East 12.7 mph 19.6 mph 0.37 in Rain Heavy Rain
11:01 PM 46.9 °F - 45.0 °F 93% 30.01 in 4.0 mi East 10.4 mph 19.6 mph 0.48 in Rain Heavy Rain